Regional Weather Roundup
Issued by NWS

Home | Current Version | Previous Version | Graphics & Text | Print | Product List | Glossary On
Versions: 1 2 3 4 5 6 7 8 9 10 11 12 13 14 15 16 17 18 19 20 21 22 23 24 25 26 27 28 29 30 31 32 33 34 35 36 37 38 39 40 41 42 43 44 45 46 47 48 49 50
000
ASUS43 KLOT 230913
RWRIL

ILLINOIS REGIONAL WEATHER ROUNDUP
NATIONAL WEATHER SERVICE CHICAGO/ROMEOVILLE IL
400 AM CDT SAT MAY 23 2015

NOTE: "FAIR" INDICATES FEW OR NO CLOUDS BELOW 12,000 FEET WITH NO
SIGNIFICANT WEATHER AND/OR OBSTRUCTIONS TO VISIBILITY.

* THESE STATIONS ARE NOT UNDER NWS QUALITY CONTROL. THEY ALSO MAY NOT
  REPORT WEATHER SUCH AS PRECIPITATION OR FOG.

ILZ001-002-007-009-015-016-024-231000-
NORTHWEST ILLINOIS

CITY           SKY/WX    TMP DP  RH WIND       PRES   REMARKS
MOLINE         MOCLDY    54  45  71 CALM      30.25R
STERLING*      MOCLDY    55  37  50 E7        30.28R
SAVANNA*       MOCLDY    57  35  43 SE3       30.27R
$$

ILZ003-004-008-010-011-017-018-231000-
NORTH CENTRAL ILLINOIS

CITY           SKY/WX    TMP DP  RH WIND       PRES   REMARKS
ROCKFORD       CLEAR     49  35  58 CALM      30.31S
FREEPORT*      PTCLDY    47  35  64 CALM      30.30R
ROCHELLE*      PTCLDY    50  36  58 SE7       30.30R
DE KALB*       PTCLDY    47  34  60 SE7       30.31R
PERU*          PTCLDY    54  40  60 E6        30.29R
$$

ILZ005-006-012>014-019>023-231000-
NORTHEAST ILLINOIS

CITY           SKY/WX    TMP DP  RH WIND       PRES   REMARKS
CHICAGO-OHARE  MOCLDY    50  36  58 S5        30.29S
CHICAGO-MIDWAY MOCLDY    56  35  45 SE3       30.30R
AURORA         PTCLDY    48  36  63 CALM      30.30R
LANSING*       MOCLDY    49  38  65 CALM      30.30R
JOLIET*        MOCLDY    54  38  55 CALM      30.29S
WAUKEGAN       CLEAR     41  37  86 CALM      30.29S
DUPAGE AIRPORT PTCLDY    46  36  68 CALM      30.29S
KANKAKEE*      PTCLDY    53  38  57 CALM      30.30R
WHEELING       CLEAR     45  38  76 CALM      30.31S
MORRIS*        MOCLDY    53  38  56 CALM      30.27S
ROMEOVILLE*    MOCLDY    52  36  53 SE8       30.29S
NORTHERLY ISL    N/A     53  42  66 CALM        N/A
$$

LMZ740>746-231000-
SOUTHERN LAKE MICHIGAN

STATION/POSITION SKY/WX   TEMP    WIND        PRES    VSBY  WAVE
                          AIR SEA DIR/SP/G                  HT/PER
                          (F)     (DEG/KT/KT) (MB)    (MI)  (FT/S)
SOUTHERN BUOY              45 38  170/  8/  8 1026.9R         0
HARRISON CRIB              56     160/  9/ 10   N/A
BURNHAM HARBOR             53      CALM  /  2   N/A
CALUMET HARBOR             55     170/  3/  4   N/A
BURNS HARBOR               60     130/  7/ 15 1026.1S
MICHIGAN CITY              53     120/  9/ 10   N/A
MICHIGAN CITY 6N           54 51  130/  8/ 12   N/A           1/ 3
ST. JOSEPH                 53 53  210/  6/  8   N/A           1
$$

ILZ025>027-034>036-040-047-049-050-058-095>099-231000-
WEST-CENTRAL ILLINOIS

CITY           SKY/WX    TMP DP  RH WIND       PRES   REMARKS
QUINCY         MOCLDY    58  52  80 SE3       30.26R
GALESBURG*     PTCLDY    55  51  86 NE3       30.26R
MACOMB*        PTCLDY    55  53  94 SW6       30.28R
JACKSONVILLE*  PTCLDY    61  56  84 CALM      30.26S
PITTSFIELD*      N/A     58  53  81 CALM      30.28R
$$

ILZ028>032-037-038-041>044-048-051>054-059>061-231000-
CENTRAL ILLINOIS

CITY           SKY/WX    TMP DP  RH WIND       PRES   REMARKS
PONTIAC        MOCLDY    55  41  58 E7        30.28S
BLOOMINGTON    CLOUDY    60  42  51 SE5       30.28R
DECATUR        PTCLDY    61  51  70 SW3       30.27R
PEORIA         MOCLDY    58  45  62 CALM      30.27R
LACON*         PTCLDY    57  39  50 CALM      30.27R
LINCOLN*       PTCLDY    57  51  79 CALM      30.25R
SPRINGFIELD    PTCLDY    57  53  86 CALM      30.27R
TAYLORVILLE    MOCLDY    57  54  88 CALM      30.27R
$$

ILZ033-039-045-046-055>057-062-063-231000-
EAST-CENTRAL ILLINOIS

CITY           SKY/WX    TMP DP  RH WIND       PRES   REMARKS
CHAMPAIGN      CLOUDY    58  45  62 E7        30.27R
DANVILLE*      CLOUDY    57  41  55 E7        30.24F
RANTOUL*       CLOUDY    60  42  50 E5        30.27R
MATTOON        CLOUDY    58  51  78 SE5       30.26R
PARIS*         CLOUDY    60  53  76 S5        30.28R
$$

ILZ079-100>102-231000-
SOUTHWEST ILLINOIS

CITY           SKY/WX    TMP DP  RH WIND       PRES   REMARKS
ALTON          CLOUDY    60  60 100 S3        30.28R
BELLEVILLE     MOCLDY    61  57  86 CALM      30.27R
CAHOKIA*       CLOUDY    61  56  83 CALM      30.28R
SPARTA*        CLOUDY    60  55  84 CALM      30.29R
$$

ILZ064>066-069>071-074>076-080>082-084>086-088>090-092>094-231000-
SOUTH-CENTRAL ILLINOIS

CITY           SKY/WX    TMP DP  RH WIND       PRES   REMARKS
CARBONDALE     CLOUDY    57  55  93 CALM      30.29R
CAIRO*         CLOUDY    59  58  96 CALM      30.29R
EFFINGHAM*     CLOUDY    58  53  82 CALM      30.29R
MARION         CLOUDY    59  57  94 CALM      30.30R
MT. VERNON     CLOUDY    55  52  88 CALM      30.29S
CENTRALIA*     CLOUDY    58  54  86 CALM      30.29R
SALEM*         CLOUDY    61  55  81 CALM      30.29R
METROPOLIS*    MOCLDY    57  57 100 CALM      30.28R
$$

ILZ067-068-072-073-078-083-087-091-231000-
SOUTHEAST ILLINOIS

CITY           SKY/WX    TMP DP  RH WIND       PRES   REMARKS
LAWRENCEVILLE  CLOUDY    58  55  90 SE3       30.28S
FLORA*         CLOUDY    58  55  91 CALM      30.29R
FAIRFIELD*     MOCLDY    58  56  92 CALM      30.28R
HARRISBURG*    CLOUDY    58  58  99 CALM      30.30R
ROBINSON*      CLOUDY    58  55  88 CALM      30.29R
CARMI*         MOCLDY    58  53  83 CALM      30.29R
$$

ABBREVIATIONS USED IN REMARKS
   TC - TEMPERATURE IN CELSIUS
  WCI - WIND CHILL INDEX
   HX - HEAT INDEX
  VSB - VISIBILITY
$$



USA.gov is the U.S. government's official web portal to all federal, state and local government web resources and services.